Tracking 18840 objects as of 20-November-2017
HD Live streaming from Space Station
objects crossing your sky now

FENGYUN 1C DEB

Track FENGYUN 1C DEB now!
10-day predictions


NORAD ID: 29994
Int'l Code: 1999-025LU
Perigee: 796.6 km
Apogee: 997.8 km
Inclination: 99.2 °
Period: 102.8 minutes
Semi major axis: 7268 km
RCS: 0.194 m2 (medium)
Launch date: May 10, 1999
Source: People's Republic of China (PRC)
Launch site: Taiyaun Space Center, China (TSC)

Note: This is SATELLITE DEBRIS
aabbcc
Your satellite tracking list
Your tracking list is empty




NASA's NSSDC Master Catalog

Two Line Element Set (TLE):
1 29994U 99025LU  17323.59744595 +.00000445 +00000-0 +30005-3 0  9996
2 29994 099.1992 346.3523 0138370 090.9848 026.0164 14.01083565554714
Source of the keplerian elements: AFSPC